sat.trackr.live / text

‹ back to catalog

STARLINK-37833

NORAD 69332 · 2026-122D

PAYLOAD ACTIVE UNKNOWN

§ Identity

Operator
Country
US
Launch date
2026-06-03
Launch site
AFWTR
Launch vehicle
Mass (kg)
RCS (m²)

Purposes: comms

External: N2YO · Heavens-Above · Gunter

§ Orbital elements

Epoch: 2026-09-20T00:45:05.311872Z

Period
93.91 min
Inclination
97.2846°
Eccentricity
0.0001089
Mean motion
15.33454654 rev/d
Perigee alt
464.8 km
Apogee alt
466.3 km
Semi-major
6,843.7 km
B*
3.4210e-4
RAAN
291.5992°
Arg perigee
109.2299°
Mean anomaly
250.9061°
Rev number
1,672

§ Raw data

STARLINK-378331 69332U 26122D   26263.03131148  .00010989  00000+0  34210-3 0  99952 69332  97.2846 291.5992 0001089 109.2299 250.9061 15.33454654 16727

JSON: /api/v1/satellites/69332 · /tle

For live sub-satellite position, see the globe view (requires WebGL).

§ Visibility from observer

Set your observer location to see the next 7 days of passes ≥ 10°. The values pass through the URL so the page stays shareable.

No JS? Fill the form by hand. The geolocation button needs JavaScript.